Location: Krakow
(50.0830°N, 19.9170°E)
Time: 14:55:22
(UTC+02:00)

Tiros 1 - Pass Details

Date: 05 February 2023
Orbit: 627 x 662 km, 48.4° (Epoch: 01 April)

Event Time Altitude Azimuth Distance (km) Brightness Sun altitude
Exits shadow 04:18:02 30° 152° (SSE) 1,151 8.5 -27.6°
Drops below altitude 10° 04:20:43 10° 131° (SE) 2,038 10.2 -27.2°
Sets 04:23:07 0° 125° (SE) 2,952 11.2 -26.8°
